TimePDT,TemperatureF,Dew PointF,Humidity,Sea Level PressureIn,VisibilityMPH,Wind Direction,Wind SpeedMPH,Gust SpeedMPH,PrecipitationIn,Events,Conditions,WindDirDegrees,DateUTC
12:15 AM,35.6,30.2,81,30.36,10.0,Calm,Calm,-,N/A,,Clear,0,2011-11-02 07:15:00
12:35 AM,33.8,28.4,81,30.35,10.0,SSE,3.5,-,N/A,,Clear,150,2011-11-02 07:35:00
12:55 AM,33.8,30.2,87,30.34,10.0,Calm,Calm,-,N/A,,Clear,0,2011-11-02 07:55:00
1:15 AM,32.0,26.6,80,30.33,10.0,Calm,Calm,-,N/A,,Clear,0,2011-11-02 08:15:00
1:35 AM,32.0,28.4,87,30.32,10.0,Calm,Calm,-,N/A,,Clear,0,2011-11-02 08:35:00
1:55 AM,33.8,30.2,87,30.31,8.0,Calm,Calm,-,N/A,,Clear,0,2011-11-02 08:55:00
2:55 AM,32.0,28.4,87,30.28,8.0,Calm,Calm,-,N/A,,Clear,0,2011-11-02 09:55:00
3:55 AM,30.2,28.4,93,30.25,2.0,Calm,Calm,-,N/A,,Clear,0,2011-11-02 10:55:00
4:35 AM,30.2,28.4,93,30.22,10.0,Calm,Calm,-,N/A,,Clear,0,2011-11-02 11:35:00
4:55 AM,32.0,28.4,87,30.21,10.0,Calm,Calm,-,N/A,,Clear,0,2011-11-02 11:55:00
5:15 AM,32.0,28.4,87,30.19,10.0,Calm,Calm,-,N/A,,Clear,0,2011-11-02 12:15:00
5:35 AM,30.2,24.8,80,30.17,10.0,Calm,Calm,-,N/A,,Clear,0,2011-11-02 12:35:00
5:55 AM,30.2,26.6,86,30.17,10.0,Calm,Calm,-,N/A,,Clear,0,2011-11-02 12:55:00
6:15 AM,30.2,28.4,93,30.15,10.0,Calm,Calm,-,N/A,,Clear,0,2011-11-02 13:15:00
6:35 AM,30.2,28.4,93,30.14,10.0,Calm,Calm,-,N/A,,Clear,0,2011-11-02 13:35:00
6:55 AM,30.2,28.4,93,30.12,10.0,Calm,Calm,-,N/A,,Clear,0,2011-11-02 13:55:00
7:15 AM,28.4,24.8,86,30.11,10.0,Calm,Calm,-,N/A,,Clear,0,2011-11-02 14:15:00
7:35 AM,28.4,26.6,93,30.10,3.0,Calm,Calm,-,N/A,,Clear,0,2011-11-02 14:35:00
7:55 AM,28.4,26.6,93,30.09,10.0,Calm,Calm,-,N/A,,Clear,0,2011-11-02 14:55:00
8:15 AM,28.4,24.8,86,30.08,10.0,Calm,Calm,-,N/A,,Clear,0,2011-11-02 15:15:00
8:35 AM,28.4,24.8,86,30.07,10.0,Calm,Calm,-,N/A,,Clear,0,2011-11-02 15:35:00
8:55 AM,30.2,26.6,86,30.05,10.0,Calm,Calm,-,N/A,,Clear,0,2011-11-02 15:55:00
9:15 AM,32.0,28.4,87,30.03,10.0,Calm,Calm,-,N/A,,Clear,0,2011-11-02 16:15:00
9:35 AM,35.6,32.0,87,30.02,10.0,Calm,Calm,-,N/A,,Clear,0,2011-11-02 16:35:00
9:55 AM,37.4,32.0,81,30.02,10.0,Calm,Calm,-,N/A,,Clear,0,2011-11-02 16:55:00
10:15 AM,41.0,33.8,76,30.02,10.0,Calm,Calm,-,N/A,,Clear,0,2011-11-02 17:15:00
10:35 AM,44.6,33.8,66,30.00,10.0,Calm,Calm,-,N/A,,Clear,0,2011-11-02 17:35:00
10:55 AM,48.2,33.8,58,30.00,10.0,SE,4.6,-,N/A,,Clear,140,2011-11-02 17:55:00
11:15 AM,50.0,35.6,58,29.99,10.0,South,4.6,-,N/A,,Clear,190,2011-11-02 18:15:00
11:35 AM,50.0,35.6,58,29.97,10.0,South,5.8,-,N/A,,Clear,180,2011-11-02 18:35:00
11:55 AM,51.8,35.6,54,29.95,10.0,South,4.6,-,N/A,,Clear,170,2011-11-02 18:55:00
12:15 PM,51.8,37.4,58,29.93,10.0,South,4.6,-,N/A,,Clear,170,2011-11-02 19:15:00
12:35 PM,55.4,37.4,51,29.91,10.0,South,6.9,-,N/A,,Clear,180,2011-11-02 19:35:00
12:55 PM,55.4,33.8,44,29.88,10.0,South,6.9,-,N/A,,Clear,190,2011-11-02 19:55:00
1:15 PM,59.0,35.6,42,29.87,10.0,South,11.5,-,N/A,,Clear,190,2011-11-02 20:15:00
1:35 PM,60.8,35.6,39,29.85,10.0,SSW,10.4,16.1,N/A,,Clear,200,2011-11-02 20:35:00
1:55 PM,57.2,35.6,44,29.85,10.0,South,12.7,18.4,N/A,,Clear,180,2011-11-02 20:55:00
2:15 PM,57.2,35.6,44,29.84,10.0,South,10.4,-,N/A,,Clear,170,2011-11-02 21:15:00
2:35 PM,55.4,35.6,47,29.83,10.0,South,10.4,-,N/A,,Clear,180,2011-11-02 21:35:00
3:15 PM,53.6,35.6,51,29.82,10.0,South,10.4,-,N/A,,Clear,180,2011-11-02 22:15:00
3:35 PM,53.6,35.6,51,29.82,10.0,SSW,6.9,-,N/A,,Partly Cloudy,200,2011-11-02 22:35:00
3:55 PM,53.6,35.6,51,29.83,10.0,SSW,4.6,-,N/A,,Mostly Cloudy,200,2011-11-02 22:55:00
4:15 PM,51.8,37.4,58,29.83,10.0,South,6.9,-,N/A,,Scattered Clouds,170,2011-11-02 23:15:00
4:35 PM,55.4,30.2,38,29.83,10.0,SSE,12.7,23.0,N/A,,Partly Cloudy,160,2011-11-02 23:35:00
4:55 PM,53.6,33.8,47,29.83,10.0,South,10.4,-,N/A,,Mostly Cloudy,170,2011-11-02 23:55:00
5:15 PM,53.6,32.0,44,29.82,10.0,SSE,13.8,18.4,N/A,,Overcast,160,2011-11-03 00:15:00
5:35 PM,51.8,32.0,47,29.83,10.0,South,9.2,-,N/A,,Overcast,190,2011-11-03 00:35:00
5:55 PM,51.8,33.8,50,29.85,10.0,SSW,12.7,20.7,N/A,,Overcast,200,2011-11-03 00:55:00
6:15 PM,48.2,37.4,66,29.85,7.0,South,25.3,34.5,0.01,,Overcast,180,2011-11-03 01:15:00
6:35 PM,46.4,39.2,76,29.87,7.0,South,21.9,27.6,0.03,,Overcast,180,2011-11-03 01:35:00
6:55 PM,46.4,39.2,76,29.86,9.0,SSE,24.2,32.2,0.05,,Overcast,160,2011-11-03 01:55:00
7:15 PM,46.4,41.0,81,29.85,9.0,SSE,20.7,29.9,0.02,,Overcast,150,2011-11-03 02:15:00
7:35 PM,46.4,41.0,81,29.84,10.0,SSE,21.9,28.8,0.05,,Overcast,150,2011-11-03 02:35:00
7:55 PM,44.6,41.0,87,29.84,10.0,SSE,15.0,24.2,0.06,,Overcast,160,2011-11-03 02:55:00
8:15 PM,44.6,41.0,87,29.87,10.0,South,8.1,-,0.01,,Overcast,180,2011-11-03 03:15:00
8:35 PM,44.6,41.0,87,29.85,10.0,SSE,13.8,20.7,0.01,,Overcast,150,2011-11-03 03:35:00
8:55 PM,44.6,41.0,87,29.85,10.0,SE,16.1,21.9,0.01,,Overcast,140,2011-11-03 03:55:00
9:15 PM,44.6,41.0,87,29.85,10.0,SE,12.7,-,N/A,,Overcast,140,2011-11-03 04:15:00
9:35 PM,44.6,39.2,81,29.85,10.0,SE,13.8,-,N/A,,Overcast,140,2011-11-03 04:35:00
9:55 PM,44.6,39.2,81,29.85,10.0,SE,13.8,20.7,N/A,,Overcast,140,2011-11-03 04:55:00
10:15 PM,44.6,39.2,81,29.85,10.0,SE,15.0,21.9,N/A,,Overcast,130,2011-11-03 05:15:00
10:55 PM,44.6,39.2,81,29.85,10.0,SE,15.0,-,N/A,,Overcast,130,2011-11-03 05:55:00
11:15 PM,44.6,37.4,76,29.86,10.0,SE,13.8,18.4,N/A,,Overcast,140,2011-11-03 06:15:00
11:35 PM,44.6,39.2,81,29.86,10.0,SE,10.4,16.1,N/A,,Overcast,140,2011-11-03 06:35:00
11:55 PM,44.6,39.2,81,29.86,10.0,SSW,3.5,-,N/A,,Overcast,210,2011-11-03 06:55:00